GEFSSE_500_meanwind_252.txt.gz
Wind_Speed
12 12 11 10 10 10 9 9 8 8 9 8 8 8 8 7 7 7 8 8 9 9 9 9 10 11 11 10 10 10 11 11 9 8 9 9 8 8 9 10 9 9 8
11 11 11 10 10 10 10 9 9 8 8 8 8 7 7 7 7 7 8 8 8 9 9 10 10 10 10 10 10 10 10 10 9 9 9 8 8 9 10 10 9 8 7
12 12 11 11 10 10 10 9 9 8 8 8 8 7 7 7 7 8 8 8 8 9 9 10 10 10 10 10 9 10 10 10 10 9 9 8 8 9 9 9 8 8 8
12 12 11 11 11 10 9 9 9 8 8 8 8 7 7 7 8 8 8 8 9 9 9 9 9 9 9 9 10 10 10 9 9 9 9 9 9 9 8 8 8 8 7
12 11 11 11 11 10 10 9 9 9 9 8 8 8 7 8 8 8 8 8 8 8 8 9 9 8 9 9 9 9 9 9 9 9 9 9 8 8 7 7 7 7 7
12 12 12 11 11 11 10 9 9 9 9 9 8 8 9 8 8 8 8 8 8 8 8 8 8 8 8 9 10 9 8 8 9 8 8 7 7 7 7 6 6 6 6
13 13 13 12 12 11 11 10 10 10 10 10 9 9 10 9 8 8 8 8 8 8 8 8 8 8 8 9 9 9 8 8 8 8 7 6 6 6 6 6 5 5 5
14 13 13 13 13 12 11 11 11 11 11 11 10 10 10 9 9 8 8 8 8 8 8 8 8 8 9 9 8 8 8 7 7 7 6 7 7 6 6 5 5 5 5
14 14 14 13 13 13 12 12 12 12 11 11 11 11 10 9 9 9 8 8 8 7 7 7 8 8 8 8 8 7 7 6 6 6 6 6 6 5 5 4 4 5 5
14 15 14 14 14 13 13 12 12 12 12 11 11 10 10 9 9 8 8 8 8 7 7 7 7 7 7 7 6 6 5 5 5 5 5 5 4 4 4 4 4 4 5
15 15 15 14 14 13 13 13 12 12 11 11 10 10 10 9 9 8 8 8 7 6 6 6 6 6 6 5 5 5 4 4 4 4 4 4 4 4 4 4 4 4 4
15 14 15 15 14 13 13 13 13 12 11 11 11 10 9 9 8 8 7 7 6 6 6 6 6 5 4 4 4 4 3 3 2 2 3 3 3 4 4 4 4 4 3
16 15 15 14 14 13 13 13 13 12 12 11 10 10 9 9 8 7 7 6 6 6 6 5 5 4 4 4 3 3 3 2 2 2 3 3 3 4 3 4 4 4 4
16 15 15 14 14 13 13 13 12 12 11 11 11 10 9 8 7 7 6 6 6 6 6 5 4 4 3 3 3 2 2 1 2 3 3 4 4 5 5 4 4 4 4
16 16 15 14 14 13 12 11 11 11 11 11 10 9 9 8 7 6 5 5 5 4 4 4 3 3 2 2 2 1 0 1 2 3 3 4 5 5 5 4 5 5 5
17 15 15 14 13 12 12 11 10 9 10 9 9 8 7 7 6 6 5 5 4 3 4 4 3 3 2 1 1 1 1 2 3 4 5 4 4 5 5 5 5 5 5
16 15 14 14 13 12 11 11 9 8 8 8 7 7 7 6 6 6 5 5 4 4 4 3 3 3 2 2 2 3 3 4 4 4 4 5 5 4 5 5 6 6 7
16 15 15 14 14 13 11 11 10 9 8 7 6 6 6 5 5 5 4 4 4 4 3 3 2 2 2 3 3 4 5 5 5 5 5 6 6 6 5 6 7 7 8
15 15 14 14 13 13 12 11 10 9 8 8 7 6 5 5 4 4 4 4 4 3 3 3 3 2 3 3 4 4 5 6 6 6 6 7 7 6 6 7 8 9 9
15 14 14 14 13 13 12 10 10 9 8 7 7 7 6 4 4 4 3 3 3 3 3 3 3 3 3 4 4 5 5 6 6 6 6 6 7 7 7 8 8 9 9
14 14 13 13 13 12 12 11 10 8 7 7 6 6 6 5 5 4 3 3 3 3 3 4 4 4 4 5 5 5 5 6 6 6 6 5 5 7 8 9 9 9 10
14 14 13 13 13 12 11 10 9 8 8 7 6 6 6 6 6 5 5 4 4 4 4 4 4 4 5 6 6 5 6 5 6 6 6 6 6 7 8 9 9 9 10
12 12 12 12 12 12 11 10 10 9 8 7 7 7 6 6 6 6 6 5 5 5 5 5 5 5 6 6 6 7 7 7 7 7 7 7 8 8 9 9 10 11 11
11 11 11 11 11 11 11 11 10 10 9 8 8 8 7 7 7 7 7 6 6 5 6 5 5 5 6 7 7 7 7 7 7 8 8 8 9 9 9 11 12 12 12
10 10 11 11 11 11 11 11 11 9 9 9 7 7 7 7 7 7 7 7 7 7 7 7 6 7 7 8 7 8 8 8 9 9 9 10 10 11 12 12 12 12 12
10 10 10 11 11 11 11 11 10 10 9 9 8 8 7 7 8 8 8 8 7 8 8 8 9 8 8 8 8 9 9 8 9 10 10 11 12 13 13 13 13 13 14

GEFSSE_500_meanwind_258.txt.gz
Wind_Speed
10 9 8 8 9 9 9 9 9 9 9 9 9 9 9 8 8 9 9 9 9 9 8 9 9 8 8 8 7 8 8 8 10 9 8 8 9 9 8 9 8 8 8
10 10 9 10 10 10 9 10 9 9 9 9 9 9 9 9 9 9 9 9 9 10 9 9 9 8 8 7 7 8 9 9 9 8 8 8 8 9 8 8 8 8 7
10 10 10 10 10 10 10 10 10 9 9 9 9 9 9 9 9 10 9 9 9 9 9 10 9 8 8 8 8 8 9 9 8 8 8 8 8 8 8 8 8 7 7
9 9 10 10 10 10 10 10 10 9 9 9 9 9 9 9 9 9 9 9 9 9 9 10 10 9 9 9 9 8 8 9 8 8 8 7 7 7 7 8 7 7 6
10 10 10 10 10 10 10 10 9 9 9 9 9 9 10 10 9 9 9 9 9 8 8 9 9 9 8 8 8 8 9 8 8 7 7 7 7 7 8 7 7 6 6
11 11 11 11 11 11 11 10 10 9 9 9 9 9 9 9 8 8 8 8 8 7 8 8 8 7 7 8 8 8 9 8 7 7 7 7 7 7 6 5 5 5 5
11 11 12 11 11 11 11 10 10 10 9 9 9 9 8 8 8 8 8 8 6 7 8 8 8 6 6 6 6 8 8 7 6 6 6 6 5 5 5 5 5 5 5
12 12 13 13 12 12 11 10 10 10 10 10 9 9 9 9 9 8 8 7 7 7 8 7 7 6 5 6 6 7 6 5 5 5 5 4 5 5 4 4 4 4 4
14 13 13 13 12 12 11 11 10 10 10 10 11 10 10 9 9 8 8 8 8 8 7 6 6 5 5 5 6 6 5 5 4 5 4 4 4 4 3 3 3 3 3
15 14 14 13 13 12 11 11 11 10 10 10 10 10 10 10 9 8 8 8 8 7 7 6 5 4 4 4 4 4 4 3 3 3 3 3 2 2 3 3 4 3 3
14 14 14 14 13 13 12 12 12 11 11 10 10 9 9 9 9 9 9 8 8 6 6 5 5 5 4 4 3 3 3 2 2 2 1 1 1 1 2 3 3 3 3
14 14 13 13 13 12 12 12 12 11 11 10 9 9 8 8 8 8 8 8 7 6 5 5 5 4 3 3 2 2 1 1 1 1 1 0 1 2 2 2 3 4 4
15 14 13 12 13 13 13 12 12 11 11 11 10 9 8 8 8 8 8 7 6 6 5 4 4 3 3 2 2 1 1 0 0 1 1 1 2 2 2 3 4 5 5
16 14 13 13 13 13 12 11 11 11 11 11 10 9 9 8 7 7 7 6 6 5 5 4 3 3 2 1 0 1 1 1 1 1 2 2 2 3 4 4 4 5 6
16 15 14 13 13 13 12 12 11 11 11 10 10 9 8 8 7 6 6 6 5 5 4 4 4 3 3 2 1 1 1 2 3 3 3 4 4 4 5 5 5 6 7
17 16 16 14 13 12 12 11 11 11 10 10 9 8 7 7 7 7 6 5 5 4 4 3 3 3 2 2 2 1 2 3 3 3 4 4 4 5 6 7 7 8 8
16 15 15 14 13 12 11 11 11 10 9 9 8 7 6 6 6 6 5 5 4 4 3 3 2 2 2 2 3 3 3 3 4 4 4 5 5 5 6 6 7 8 9
16 15 14 13 12 11 11 10 9 9 8 8 7 6 6 6 5 4 4 3 3 3 3 2 2 2 2 3 3 3 3 4 4 5 5 5 6 6 6 6 7 8 9
15 14 14 13 13 11 11 10 9 8 8 7 6 5 5 5 4 3 3 3 2 2 2 2 2 3 3 3 4 4 4 4 5 5 5 5 6 7 8 8 8 8 9
14 14 13 13 13 12 11 10 9 8 7 7 6 5 5 5 4 3 3 2 2 3 3 3 3 3 4 4 4 5 5 5 5 5 6 5 6 7 9 9 9 9 10
13 13 13 13 12 12 11 11 10 9 8 7 7 6 5 5 5 4 4 4 3 4 4 3 3 4 4 4 5 5 6 6 5 6 7 6 7 8 9 9 9 10 11
11 11 12 12 11 11 11 11 10 9 8 8 7 7 6 5 4 4 5 5 5 4 5 4 4 4 5 5 5 6 6 7 6 7 7 7 8 9 9 9 10 11 12
10 10 11 11 11 10 10 10 10 9 8 8 8 7 7 6 4 4 6 6 6 6 6 6 5 5 6 6 6 7 7 8 8 7 8 8 8 9 10 11 12 12 13
8 9 9 10 10 10 10 9 9 9 8 8 8 7 7 6 6 5 6 7 7 7 7 7 7 6 7 7 7 8 8 9 9 9 9 9 9 9 10 11 11 12 13
7 7 8 8 9 9 9 9 8 8 8 8 8 8 7 6 6 6 7 7 8 8 8 8 8 8 8 8 9 9 10 10 10 10 9 9 10 10 11 11 11 12 13
6 7 7 7 8 8 8 8 8 7 8 8 8 8 7 7 7 6 7 8 8 8 8 8 9 9 9 9 10 10 10 10 11 10 10 10 11 12 12 12 12 13 14

GEFSSE_500_meanwind_264.txt.gz
Wind_Speed
10 10 10 10 10 10 9 10 11 11 10 10 10 9 9 9 9 9 9 9 9 8 8 9 10 9 8 8 8 7 8 8 9 8 8 7 7 6 7 6 6 6 6
11 10 10 10 9 9 10 10 11 11 10 10 10 10 10 9 10 10 9 9 9 9 10 10 9 8 8 8 8 8 8 9 8 8 8 7 6 6 6 5 5 6 6
11 10 9 10 10 9 9 10 10 11 11 11 11 11 11 10 10 10 10 10 10 10 11 11 10 9 8 8 8 7 8 9 9 8 8 6 6 6 6 5 5 6 7
11 10 10 10 10 10 10 10 10 10 11 11 11 12 12 12 11 11 10 10 11 11 11 10 10 9 8 7 7 7 8 9 9 8 7 6 6 5 6 5 5 6 7
10 10 9 10 10 10 11 11 11 11 12 12 12 12 12 11 10 10 10 9 11 11 11 11 10 9 7 7 7 7 8 8 8 7 6 5 5 5 5 5 5 6 6
10 9 8 9 10 10 11 11 11 12 12 11 12 12 11 10 10 10 10 10 10 11 11 10 9 8 7 7 7 6 7 6 6 6 6 6 5 5 5 5 6 5 6
11 10 10 10 10 11 11 12 11 11 11 11 11 11 11 10 10 10 10 9 10 10 10 9 8 7 7 6 6 6 6 7 6 6 6 6 5 5 5 6 6 5 6
12 11 11 11 10 10 10 11 10 10 10 10 10 10 10 10 10 9 9 9 9 10 9 8 8 7 6 6 6 6 7 6 6 5 5 6 5 5 5 6 7 6 6
12 11 11 11 10 10 10 10 10 10 10 10 10 10 10 10 10 9 9 9 9 9 8 8 7 6 5 5 5 6 6 4 4 4 5 5 5 5 6 5 5 6 6
12 11 10 10 10 10 10 9 10 10 11 10 10 10 10 9 9 9 8 9 9 8 7 7 7 6 5 5 5 4 4 4 4 4 3 4 4 4 4 4 4 4 5
12 11 10 10 10 10 10 10 10 10 10 11 11 10 10 9 8 8 8 8 7 7 7 7 6 5 4 4 4 3 3 3 3 3 2 3 3 3 3 4 4 5 5
12 11 11 11 11 10 10 10 10 10 11 11 10 10 9 8 8 7 8 7 7 7 7 6 5 4 4 4 4 3 2 2 2 2 2 2 2 2 3 3 4 5 5
12 11 11 11 11 10 10 11 10 11 11 10 10 9 8 8 8 7 7 6 6 6 6 6 5 5 4 4 3 3 1 1 1 1 1 2 2 2 3 3 4 5 5
12 12 12 11 11 11 11 11 10 10 10 10 9 8 8 7 7 7 7 7 6 6 5 4 5 5 4 3 3 2 1 2 2 2 2 2 3 3 4 4 5 5 6
13 12 12 12 11 11 11 10 10 10 9 9 8 8 8 7 7 7 7 6 6 5 4 3 4 4 3 2 1 1 1 2 2 3 3 4 4 4 4 5 5 6 7
13 13 12 11 11 11 11 11 10 9 9 8 8 8 8 7 6 5 6 5 5 5 4 3 3 3 2 1 1 1 2 2 2 3 3 4 5 5 5 5 6 7 7
14 13 12 11 11 11 11 11 10 9 8 7 7 7 7 6 6 5 5 4 4 3 3 3 3 2 1 1 1 1 1 2 2 3 4 4 5 5 6 6 6 6 7
13 13 12 11 11 10 10 10 10 9 8 8 7 7 7 7 6 5 4 3 3 2 2 2 2 2 1 1 1 2 2 2 3 3 4 4 5 5 6 6 6 7 7
12 12 11 11 11 10 9 9 9 8 8 7 7 7 7 7 6 6 4 3 3 2 2 2 2 2 2 2 2 2 3 3 3 4 5 5 6 6 6 7 7 7 8
12 11 11 11 10 10 9 9 8 8 7 7 6 6 6 6 6 6 5 4 3 3 3 2 2 2 2 3 3 3 4 4 5 6 6 6 7 7 7 7 8 8 8
11 10 10 10 10 9 9 8 8 7 7 7 6 6 6 5 5 6 5 4 4 4 4 3 3 3 3 4 5 5 5 5 6 6 6 6 7 8 8 8 8 9 9
9 9 9 9 9 9 8 8 8 7 7 6 6 5 5 5 5 5 4 4 4 4 4 4 4 4 4 5 5 6 6 6 6 7 7 7 7 7 8 8 9 9 10
8 7 7 7 8 7 7 7 7 7 7 6 6 5 5 5 5 5 5 4 5 5 5 5 5 5 6 5 5 6 7 7 7 7 7 7 8 8 8 9 9 10 11
6 6 6 6 6 6 6 6 6 6 6 6 6 5 5 5 5 5 6 6 6 6 6 6 6 7 7 6 6 6 7 8 9 9 8 8 9 9 10 10 10 10 11
6 5 6 5 5 5 5 5 5 6 6 6 6 6 5 5 6 6 6 7 7 7 7 7 7 7 7 7 7 7 8 9 10 10 9 9 9 10 10 11 11 11 12
6 5 5 5 4 4 4 5 5 6 6 6 6 6 6 6 6 6 6 6 7 7 7 7 7 7 7 7 7 8 9 10 10 10 10 10 11 11 11 11 12 12 13

GEFSSE_500_meanwind_270.txt.gz
Wind_Speed
8 7 7 8 8 7 7 7 7 7 6 7 6 6 5 6 6 6 6 6 6 6 6 7 6 6 7 7 7 6 6 5 4 7 8 7 5 5 4 4 4 4 3
8 7 7 8 7 7 7 7 7 7 7 7 7 6 6 5 6 5 6 6 7 8 7 7 7 7 6 6 6 6 6 5 6 6 6 5 5 5 4 4 4 3 3
8 7 7 7 7 7 7 7 7 7 7 7 7 6 6 6 6 6 6 6 7 8 8 7 7 7 6 6 6 6 5 6 5 5 5 4 4 4 4 4 3 3 2
7 7 7 6 6 7 7 7 7 7 7 7 6 6 6 6 6 6 7 7 7 8 7 7 6 6 6 5 5 6 5 5 5 4 4 4 3 4 4 3 3 3 2
7 7 6 6 6 7 7 7 7 7 6 6 6 6 7 7 6 6 6 7 6 7 8 7 7 6 7 6 6 6 6 6 4 4 4 3 3 4 3 3 2 3 2
8 8 7 7 6 7 7 7 7 6 6 6 7 7 7 7 8 7 7 7 7 7 8 7 7 7 7 6 6 6 6 6 5 4 3 3 3 4 4 3 3 3 3
9 8 8 7 6 7 7 7 6 6 6 7 7 8 8 8 8 8 8 8 7 7 7 7 6 6 5 5 6 7 6 5 4 3 2 3 3 3 4 3 4 4 4
9 9 9 8 8 8 7 7 7 6 6 6 7 8 8 9 8 8 8 8 7 7 7 6 6 5 4 3 4 4 4 3 3 2 2 3 3 3 3 3 3 4 4
10 10 9 8 8 8 8 7 6 7 7 6 7 7 8 8 8 7 7 7 7 7 7 6 4 3 3 3 2 2 2 3 3 2 2 2 2 2 2 3 3 3 3
10 10 9 9 9 8 8 8 7 7 8 7 7 7 7 7 6 7 6 6 6 6 5 5 4 3 2 2 2 3 3 3 2 1 2 2 2 2 2 2 3 3 4
9 9 9 9 9 8 8 8 8 7 7 7 7 7 7 6 6 7 6 6 6 5 4 4 3 2 2 3 3 3 3 2 2 2 2 2 2 2 3 3 3 3 4
10 10 9 9 8 8 8 8 7 7 7 7 7 7 7 7 6 6 6 7 6 5 4 3 3 4 4 4 3 3 2 3 1 2 2 2 1 2 3 2 3 4 4
10 10 10 10 9 8 8 7 7 7 7 7 7 7 7 7 7 7 6 6 5 4 4 4 5 5 4 3 2 3 3 2 2 2 2 1 1 1 2 2 3 3 4
10 10 10 10 10 9 9 9 8 8 7 7 7 7 7 7 6 6 5 4 4 4 3 4 4 4 3 2 2 2 2 2 2 2 2 2 2 2 2 3 3 4 5
11 11 11 11 10 10 9 9 9 8 7 8 8 7 7 6 6 5 5 4 3 4 3 3 4 4 3 2 1 2 2 2 2 2 2 2 2 2 3 3 4 5 6
12 12 11 10 10 10 9 9 9 8 8 8 8 7 7 6 6 5 5 4 3 3 3 3 3 2 2 2 2 1 2 2 2 2 2 2 3 3 4 4 5 6 7
12 12 11 11 10 10 9 9 9 9 9 8 8 7 6 6 6 6 5 4 4 4 3 3 3 2 2 2 2 2 2 2 2 3 3 3 4 4 5 5 5 6 7
12 12 11 11 10 10 9 9 9 9 9 9 8 8 7 7 7 7 6 5 5 5 4 4 3 3 3 3 3 3 3 3 4 4 5 5 6 6 6 6 6 6 6
12 11 11 11 11 10 10 9 9 9 9 8 8 8 8 8 8 7 7 6 6 6 5 4 4 4 4 4 4 4 5 5 6 6 6 6 6 7 7 8 8 8 8
12 11 11 11 11 10 10 9 9 8 8 8 8 7 7 7 7 7 7 6 6 6 5 5 5 5 5 5 4 4 5 6 7 7 7 7 7 7 8 8 9 10 10
11 11 11 10 10 10 10 9 9 8 8 7 7 7 7 6 6 6 6 6 6 6 5 5 5 5 5 5 6 6 6 6 7 7 7 8 8 8 8 9 10 10 10
10 10 10 10 9 9 9 9 9 8 8 7 7 7 6 6 6 6 6 6 6 7 7 6 5 5 5 6 6 7 7 7 7 7 8 9 9 9 9 9 10 10 10
10 9 9 9 9 9 9 9 9 9 8 8 8 7 7 7 6 6 6 7 7 7 6 6 6 5 6 6 6 7 7 8 8 8 9 10 10 10 10 10 11 11 11
9 9 8 8 8 8 9 9 9 9 9 9 8 8 8 8 7 7 7 7 7 7 7 6 6 6 6 6 7 7 7 8 9 9 9 10 10 10 11 11 12 12 12
9 8 8 8 8 8 9 9 9 9 9 9 8 8 8 8 8 8 8 8 8 8 8 7 6 7 7 7 7 7 8 9 9 9 10 10 11 11 11 12 12 13 12
9 9 9 8 8 8 8 9 9 9 9 9 9 9 8 8 9 9 9 9 8 9 8 7 7 8 8 8 8 8 9 9 9 10 10 11 12 12 12 12 13 13 13

GEFSSE_500_meanwind_276.txt.gz
Wind_Speed
7 7 6 6 5 5 4 4 4 4 4 4 4 5 5 5 5 5 5 5 5 7 7 7 7 7 7 7 7 7 7 8 8 7 8 8 8 7 6 7 6 6 5
7 7 6 6 6 5 5 4 4 4 5 5 5 5 5 5 5 6 6 5 6 7 8 7 7 8 7 7 7 7 6 7 6 6 7 6 6 5 6 6 5 5 4
7 7 6 6 6 6 5 4 4 5 5 5 6 5 5 5 5 6 6 6 7 8 9 8 7 7 7 7 6 6 6 6 6 6 7 6 6 5 5 5 5 5 5
8 7 6 6 6 6 5 5 5 5 5 5 6 5 5 5 5 5 6 7 7 8 8 8 7 6 7 6 6 6 6 6 6 5 6 6 6 5 5 5 5 5 5
9 8 7 7 7 6 6 5 5 5 5 6 6 5 5 5 5 5 6 7 7 7 7 7 7 6 6 6 5 4 5 5 5 4 6 6 6 5 5 4 5 5 6
9 8 8 8 7 7 6 6 6 6 6 6 6 5 5 5 5 6 7 7 7 6 6 6 7 6 5 5 4 4 4 4 5 4 5 5 5 5 5 4 4 5 6
9 8 8 8 7 7 7 7 6 6 6 6 6 6 6 5 6 7 7 6 7 6 6 6 5 5 5 6 4 4 5 5 4 4 5 5 5 5 5 4 4 4 4
10 8 8 8 8 8 8 8 7 7 6 7 7 7 6 6 6 6 6 7 7 6 6 5 5 5 6 5 5 5 5 4 3 3 4 4 5 5 5 5 4 4 4
10 9 9 8 8 7 8 8 7 7 7 7 7 7 7 7 7 7 7 7 6 6 6 7 7 6 5 5 5 4 4 3 3 3 3 4 4 4 5 5 4 4 4
11 11 10 9 9 8 9 8 8 7 7 8 8 8 8 7 7 7 7 7 6 6 7 7 7 7 6 5 4 4 4 3 3 3 4 3 4 4 5 4 4 4 4
12 11 10 10 10 10 10 9 9 8 8 8 8 8 8 8 7 7 6 7 7 6 6 6 6 6 6 5 5 4 4 3 3 3 3 4 3 4 4 4 3 3 3
12 11 11 10 10 11 10 9 9 9 9 8 8 8 8 8 8 7 6 6 7 6 6 6 6 6 5 4 4 3 3 3 3 3 4 3 3 3 3 3 3 3 4
11 11 10 11 11 10 10 9 9 9 9 8 8 8 7 7 8 8 8 7 7 7 6 5 5 5 4 3 3 3 3 3 4 4 3 3 2 2 3 3 3 3 3
12 11 11 11 11 10 9 9 9 8 8 8 7 7 7 7 7 7 7 6 6 5 4 4 3 3 4 3 3 3 2 2 3 3 2 2 2 2 2 1 1 2 3
12 12 12 12 11 10 10 9 10 9 8 8 7 8 8 8 7 6 6 5 5 5 4 4 3 2 3 4 4 3 2 1 2 1 1 1 0 0 1 1 2 3 3
13 13 12 12 12 11 10 10 9 9 9 9 9 9 9 8 7 7 6 5 4 4 4 3 3 3 3 3 3 2 2 1 1 0 0 0 1 2 2 2 3 3 3
14 14 13 12 12 11 10 10 9 9 9 9 9 9 8 8 8 7 6 6 5 5 4 3 4 4 4 3 2 1 1 1 1 1 1 2 3 3 4 3 4 4 5
14 14 14 13 13 12 11 10 10 10 10 9 9 9 9 8 8 8 7 6 6 6 5 4 5 5 4 4 3 2 1 1 1 1 2 3 4 5 5 5 5 6 6
14 13 13 14 13 13 12 10 9 9 9 9 9 9 9 9 8 8 7 7 6 6 6 6 6 5 4 4 3 3 2 1 0 2 3 4 4 4 5 6 7 7 7
13 12 13 13 13 12 12 11 10 9 8 8 9 8 8 8 8 8 8 6 6 6 6 6 5 4 3 3 3 2 2 2 2 3 3 4 4 5 6 6 7 8 8
12 12 12 12 12 12 12 11 11 10 9 8 8 8 8 8 8 8 8 7 5 5 6 6 5 4 4 4 4 3 3 3 4 4 5 5 6 7 7 7 7 8 8
13 12 11 11 11 11 12 12 11 10 9 9 9 8 8 8 8 8 8 7 6 6 6 6 5 5 4 4 4 3 3 4 4 5 5 6 7 7 8 8 8 8 8
12 12 11 10 10 11 11 11 11 10 9 9 9 8 8 8 8 8 8 8 6 6 5 5 5 4 4 4 3 4 4 4 4 5 5 7 7 8 8 9 9 9 9
12 11 11 10 10 10 10 10 10 10 9 9 8 8 8 8 7 7 7 7 6 5 5 4 4 4 4 5 4 4 4 4 4 5 6 7 8 8 8 9 9 9 9
11 11 10 9 9 9 10 10 10 10 10 8 8 8 7 7 7 7 7 6 5 5 4 4 4 4 4 4 5 5 5 5 5 6 8 9 9 9 9 9 10 10 10
10 10 9 9 9 9 9 10 10 9 9 8 8 7 7 7 7 7 7 6 5 5 4 4 4 5 4 4 5 5 6 7 7 7 8 9 10 10 10 10 11 12 12